COSMOS 1691 DEB, 18282

Orbit data source: Space-Track

COSMOS 1691 DEB, 18282 is space debris in LEO originally from a launch on Wed, 09 Oct 1985 UTC launched from the Plesetsk Missile And Space Complex (PKMTR). Debris objects in space refer to the collection of defunct objects orbiting the Earth. Examples of debris include non-operational satellites, rocket bodies, and fragments generated from explosions, collisions, or faulty payload assembly.

Loading next visibility...
Identifier
18282, 1985-094T
Orbit
LEO
Country
Flag of CISCIS
Related business
Manufacturer
Unknown
Mission
Spacecraft
Bus & Motor
Unknown
Mass
Unknown
Launch date (UTC)
1985-10-09 (41 years ago)
Launch vehicle
Unknown
Launch site
Plesetsk Missile And Space Complex (PKMTR)
Object type
Payload
Rocket body
Debris
Shape & HBR
Unknown shape, 0.1 m
Radar Cross Section
Small (<0.1 m²)

Expand to show TLE details & history
Last TLE update: 1 day ago

TLE from 1 day ago
0 COSMOS 1691 DEB
1 18282U 85094T   26126.17046997  .00000713  00000-0  31395-2 0  9991
2 18282  82.6238 199.8403 0020298 186.4419 201.5645 12.78719100880757
Epoch: 2026-05-06T04:05Z
TLE epoch observation values (Epoch: 2026-05-06T04:05:28.605Z)
Latitude
27.70812°
Longitude
-81.6846°
Altitude
1,364.492 km
Speed
7.172 km/s
True Right ascension
13h 34m 52s
True Declination
27° 34' 40"
Sunlit
Object was in full shadow at epoch
Visualization orbit readout
Latitude
Unknown
Longitude
Unknown
Altitude
Unknown
Speed
Unknown
Apparent Right ascension
Unknown
Apparent Declination
Unknown
Sunlit
N/A
Visualization observer readout
Local Sidereal Time
19:52:31
Azimuth
Unknown
Elevation
Unknown
Doppler factor
Unknown
Orbital elements
Apogee altitude
1,359.594 km
Perigee altitude
1,328.246 km
Semi-major axis
7,722.057 km
Eccentricity
0.00203
Inclination
82.6238°
RAAN
199.8403°
Arg. of periapsis
186.4419°
True anomaly
201.47921°
Mean anomaly
201.5645°
Eccentric anomaly
201.52184°
Mean motion
3.19848 °/min
Orbital period
112.55 mins
BSTAR
0.0031395
Loading maneuver chart data...
Computing Atmospheric mass density...
Loading historical data...
Loading historical data...
Loading historical data...
Loading historical data...
Loading historical data...
Loading historical data...
Loading historical data...

Documentation

Showing up to 5 results
|